Location: Cambridge
(43.3830°N, 80.3170°W)
Time: 02:04:21
(UTC-04:00)

Envisat - Pass Details

Date: 29 March 2019
Orbit: 764 x 766 km, 98.2° (Epoch: 21 April)

Event Time Altitude Azimuth Distance (km) Brightness Sun altitude
Rises 20:17:36 0° 179° (S) 3,218 6.1 -6.8°
Reaches altitude 10° 20:19:57 10° 184° (S) 2,296 5.4 -7.3°
Maximum altitude 20:24:53 52° 260° (W) 954 4.0 -8.1°
Drops below altitude 10° 20:29:51 10° 337° (NNW) 2,311 6.0 -9.0°
Sets 20:32:14 0° 342° (NNW) 3,242 6.7 -9.4°
